This is the latest recevied weather packets stored in our database for station/object KD8OZS. If no packets are shown the sender has not sent any weather packets the latest 10 day(s).
| Time | Temp. | Humidity | Pressure | Rain* | Wind** | Luminosity | Snow |
|---|---|---|---|---|---|---|---|
| 1777668490 | 6.11° C | 88% | 1006 hPa | 0 mm | - | 55 W/m² | - |
| 1777668187 | 6.11° C | 89% | 1005.7 hPa | 0 mm | - | 72 W/m² | - |
| 1777667883 | 6.67° C | 89% | 1005.8 hPa | 0 mm | - | 49 W/m² | - |
| 1777667581 | 6.67° C | 89% | 1005.8 hPa | 0 mm | - | 106 W/m² | - |
| 1777667277 | 6.67° C | 89% | 1005.7 hPa | 0 mm | - | 161 W/m² | - |
| 1777666974 | 6.11° C | 90% | 1005.6 hPa | 0 mm | - | 264 W/m² | - |
| 1777666671 | 5.56° C | 90% | 1005.5 hPa | 0 mm | - | 239 W/m² | - |
| 1777666368 | 5.56° C | 90% | 1005.6 hPa | 0 mm | - | 138 W/m² | - |
| 1777666065 | 5.56° C | 90% | 1005.4 hPa | 0 mm | - | 81 W/m² | - |
| 1777665762 | 6.11° C | 91% | 1005.3 hPa | 0 mm | - | 88 W/m² | - |
| 1777665459 | 5.56° C | 92% | 1005.3 hPa | 0 mm | - | 150 W/m² | - |
| 1777665155 | 6.11° C | 92% | 1005.3 hPa | 0 mm | - | 81 W/m² | - |
| 1777664851 | 6.11° C | 93% | 1005.1 hPa | 0 mm | - | 134 W/m² | - |
| 1777664547 | 6.11° C | 93% | 1005.1 hPa | 0 mm | - | 203 W/m² | - |
| 1777664244 | 5.56° C | 93% | 1005.2 hPa | 0 mm | - | 117 W/m² | - |
| 1777663943 | 5.56° C | 94% | 1005.2 hPa | 0 mm | - | 164 W/m² | - |
| 1777663639 | 5.56° C | 94% | 1005.1 hPa | 0 mm | - | 191 W/m² | - |
| 1777663336 | 5.56° C | 94% | 1005.1 hPa | 0 mm | - | 180 W/m² | - |
| 1777663034 | 5° C | 94% | 1005.1 hPa | 0 mm | - | 127 W/m² | - |
| 1777662731 | 5.56° C | 94% | 1005 hPa | 1.78 mm | - | 121 W/m² | - |
| 1777662427 | 5° C | 94% | 1005.1 hPa | 3.05 mm | - | 92 W/m² | - |
| 1777662123 | 5° C | 94% | 1005.1 hPa | 4.83 mm | - | 90 W/m² | - |
| 1777661819 | 5° C | 94% | 1005 hPa | 4.83 mm | - | 78 W/m² | - |
| 1777661515 | 5° C | 93% | 1004.9 hPa | 0 mm | - | 53 W/m² | - |
| 1777661210 | 5.56° C | 93% | 1004.7 hPa | 0 mm | - | 50 W/m² | - |
* Rain latest hour (hover to see other rain measurements)
** Current wind speed in m/s (hover to see current wind gust speed)